AD8AK Weather Reports


Display with metric or nautical units.
time (UTC)temp
F
wind
direction
speed
MPH
gust
MPH
rain 1hr
in
rain 24hr
in
rain mn
in
humidity
%
barometer
mb
20260508175330 52 224 2.0 3.0 0.00 0.07 0.07 89 1012.0
20260508174828 53 217 2.0 4.0 0.17 0.07 0.07 88 1011.7
20260508174325 54 230 3.0 4.0 0.17 0.07 0.07 85 1011.7
20260508173821 54 264 3.0 4.0 0.00 0.04 0.04 82 1011.8
20260508173319 55 319 3.0 4.0 0.00 0.04 0.04 80 1011.4
20260508172814 56 294 3.0 4.0 0.00 0.04 0.04 79 1011.5
20260508172311 55 260 0.0 2.0 0.00 0.04 0.04 80 1011.2
20260508171808 56 209 4.0 4.0 0.00 0.04 0.04 79 1011.5
20260508171304 55 242 2.0 4.0 0.00 0.04 0.04 81 1011.3
20260508170801 55 137 4.0 6.0 0.00 0.04 0.04 81 1011.8
20260508170259 55 268 2.0 6.0 0.00 0.04 0.04 80 1011.7
20260508165755 55 171 2.0 4.0 0.00 0.04 0.04 82 1012.1
20260508165253 54 232 2.0 4.0 0.00 0.04 0.04 81 1012.0
20260508164748 54 243 2.0 3.0 0.00 0.04 0.04 82 1012.1
20260508164245 53 222 2.0 3.0 0.00 0.04 0.04 82 1012.2
20260508163744 53 240 2.0 3.0 0.07 0.04 0.04 83 1012.1
20260508163241 53 215 1.0 3.0 0.00 0.03 0.03 83 1012.1
20260508162737 53 240 1.0 3.0 0.00 0.03 0.03 82 1012.4
20260508162234 53 273 2.0 4.0 0.00 0.03 0.03 81 1012.6
20260508161731 53 212 1.0 3.0 0.00 0.03 0.03 79 1012.5
20260508161228 53 210 2.0 3.0 0.00 0.03 0.03 78 1012.7
20260508160726 53 313 3.0 3.0 0.00 0.03 0.03 78 1012.9
20260508160224 53 238 1.0 7.0 0.00 0.03 0.03 77 1012.8
20260508155720 53 262 2.0 6.0 0.00 0.03 0.03 75 1012.8
20260508155217 53 243 2.0 3.0 0.00 0.03 0.03 75 1012.7
20260508154714 53 288 2.0 3.0 0.00 0.03 0.03 75 1012.9
20260508154211 54 236 3.0 4.0 0.00 0.03 0.03 73 1012.7
20260508153708 54 292 1.0 3.0 0.00 0.03 0.03 73 1012.6
20260508153205 54 282 4.0 7.0 0.00 0.03 0.03 71 1012.7
20260508152701 54 255 2.0 3.0 0.00 0.03 0.03 71 1012.6
20260508152157 54 217 2.0 4.0 0.00 0.03 0.03 72 1012.5
20260508151654 54 247 2.0 3.0 0.00 0.03 0.03 72 1012.4
20260508151151 54 220 4.0 4.0 0.00 0.03 0.03 72 1012.6
20260508150648 54 250 1.0 3.0 0.00 0.03 0.03 72 1012.5
20260508150144 54 255 2.0 2.0 0.00 0.03 0.03 72 1012.4
20260508145640 54 323 1.0 6.0 0.00 0.03 0.03 71 1012.6
20260508145136 54 316 2.0 3.0 0.00 0.03 0.03 71 1012.6
20260508144634 54 285 1.0 6.0 0.00 0.03 0.03 70 1012.4
20260508144132 54 285 2.0 4.0 0.00 0.03 0.03 70 1012.5
20260508143629 54 282 2.0 3.0 0.00 0.03 0.03 71 1012.6
20260508143126 54 240 2.0 3.0 0.00 0.03 0.03 70 1012.6
20260508142622 54 276 3.0 4.0 0.00 0.03 0.03 70 1012.5
20260508142119 53 324 1.0 3.0 0.00 0.03 0.03 71 1012.2
20260508141616 53 284 2.0 2.0 0.00 0.03 0.03 71 1012.6
20260508141113 53 329 2.0 7.0 0.00 0.03 0.03 71 1012.7
20260508140610 53 213 3.0 4.0 0.00 0.03 0.03 72 1012.6
20260508140107 54 296 2.0 3.0 0.00 0.03 0.03 71 1012.5
20260508135602 54 291 2.0 7.0 0.00 0.03 0.03 70 1012.5
20260508135059 53 199 2.0 6.0 0.00 0.03 0.03 71 1012.3
20260508134556 53 281 2.0 2.0 0.00 0.03 0.03 72 1012.5
20260508134053 53 216 3.0 3.0 0.00 0.03 0.03 71 1012.6
20260508133549 53 315 0.0 2.0 0.00 0.03 0.03 72 1012.5
20260508133047 53 242 2.0 3.0 0.00 0.03 0.03 72 1012.7
20260508132545 53 252 1.0 3.0 0.00 0.03 0.03 72 1012.8
20260508132041 53 255 2.0 3.0 0.00 0.03 0.03 71 1012.7
20260508131536 53 283 2.0 4.0 0.00 0.03 0.03 71 1012.6
20260508131033 53 300 2.0 4.0 0.00 0.03 0.03 71 1012.5
20260508130530 52 299 2.0 3.0 0.00 0.03 0.03 72 1012.7
20260508130027 52 307 2.0 2.0 0.00 0.03 0.03 72 1012.6
20260508125522 52 291 1.0 2.0 0.00 0.03 0.03 72 1012.6
20260508125021 51 290 2.0 3.0 0.00 0.03 0.03 73 1012.7
20260508124518 51 240 2.0 2.0 0.00 0.03 0.03 73 1012.7
20260508124015 51 294 1.0 2.0 0.00 0.03 0.03 74 1012.5
20260508123514 51 246 0.0 2.0 0.00 0.03 0.03 73 1012.5
20260508123010 51 309 2.0 3.0 0.00 0.03 0.03 73 1012.7
20260508122507 51 215 1.0 2.0 0.00 0.03 0.03 72 1012.6
20260508122004 51 281 1.0 2.0 0.00 0.03 0.03 73 1012.7
20260508121502 50 332 3.0 4.0 0.00 0.03 0.03 74 1012.5
20260508121000 50 284 1.0 2.0 0.00 0.03 0.03 74 1012.4
20260508120457 49 260 2.0 3.0 0.00 0.03 0.03 74 1012.5
20260508115955 49 254 1.0 2.0 0.00 0.03 0.03 74 1012.5
20260508115452 49 251 2.0 3.0 0.00 0.03 0.03 75 1012.4
20260508114949 49 316 2.0 3.0 0.00 0.03 0.03 75 1012.5
20260508114446 49 269 0.0 1.0 0.00 0.03 0.03 75 1012.4
20260508113942 49 313 1.0 2.0 0.00 0.03 0.03 75 1012.3
20260508113440 48 222 2.0 3.0 0.00 0.03 0.03 75 1012.0
20260508112937 48 289 1.0 3.0 0.00 0.03 0.03 75 1012.1
20260508103123 44 224 0.0 0.0 0.00 0.03 0.03 89 1011.8
20260508102620 44 224 0.0 0.0 0.00 0.03 0.03 89 1011.8
20260508102118 44 228 0.0 0.0 0.00 0.03 0.03 90 1011.6
20260508101615 44 229 0.0 0.0 0.00 0.03 0.03 91 1011.6
20260508101112 43 228 0.0 0.0 0.00 0.03 0.03 92 1011.6
20260508100610 43 228 0.0 0.0 0.00 0.03 0.03 91 1011.6
20260508100107 43 228 0.0 0.0 0.00 0.03 0.03 91 1011.8
20260508095604 44 228 0.0 0.0 0.00 0.03 0.03 91 1011.8
20260508095101 44 228 0.0 0.0 0.00 0.03 0.03 90 1011.8
20260508094558 44 228 0.0 0.0 0.00 0.03 0.03 89 1011.8
20260508094055 44 228 0.0 0.0 0.00 0.03 0.03 89 1011.7
20260508093552 44 228 0.0 0.0 0.00 0.03 0.03 88 1011.7
20260508093050 44 228 0.0 0.0 0.00 0.03 0.03 88 1011.9
20260508092547 44 228 0.0 0.0 0.00 0.03 0.03 87 1012.0
20260508092046 45 228 0.0 0.0 0.00 0.03 0.03 87 1011.9
20260508091542 45 228 0.0 0.0 0.00 0.03 0.03 87 1011.8
20260508091039 45 228 0.0 0.0 0.00 0.03 0.03 86 1011.9
20260508090537 46 228 0.0 0.0 0.00 0.03 0.03 85 1012.0
20260508090033 46 187 0.0 0.0 0.00 0.03 0.03 85 1011.9
20260508085530 46 133 0.0 0.0 0.00 0.03 0.03 85 1011.8
20260508085027 46 229 0.0 0.0 0.00 0.03 0.03 85 1012.0
20260508084524 47 220 0.0 0.0 0.00 0.03 0.03 85 1011.9
20260508084021 47 225 0.0 1.0 0.00 0.03 0.03 84 1011.8
20260508083518 47 226 2.0 2.0 0.00 0.03 0.03 85 1011.8
20260508083015 47 249 0.0 1.0 0.00 0.03 0.03 85 1011.8
20260508082511 47 208 0.0 1.0 0.00 0.03 0.03 85 1011.9
20260508082008 47 196 1.0 1.0 0.00 0.03 0.03 85 1012.0
20260508081506 47 219 1.0 2.0 0.00 0.03 0.03 85 1011.9
20260508081001 47 244 1.0 1.0 0.00 0.03 0.03 85 1011.9
20260508080500 47 234 1.0 1.0 0.00 0.03 0.03 85 1012.1
20260508075956 47 223 1.0 1.0 0.00 0.03 0.03 86 1012.2
20260508075453 47 212 0.0 1.0 0.00 0.03 0.03 86 1011.9
20260508074952 47 203 0.0 1.0 0.00 0.03 0.03 86 1012.1
20260508074449 47 137 0.0 3.0 0.00 0.03 0.03 85 1012.2
20260508073945 47 221 0.0 2.0 0.00 0.03 0.03 85 1012.1
20260508073443 47 162 0.0 0.0 0.00 0.03 0.03 85 1012.3
20260508072939 47 167 0.0 0.0 0.00 0.03 0.03 85 1012.2
20260508072436 47 220 0.0 0.0 0.00 0.03 0.03 85 1012.2
20260508071933 47 220 0.0 0.0 0.00 0.03 0.03 84 1012.2
20260508071431 48 135 0.0 1.0 0.00 0.03 0.03 83 1012.3
20260508070928 48 212 0.0 0.0 0.00 0.03 0.03 83 1012.3
20260508070426 48 225 0.0 0.0 0.00 0.03 0.03 83 1012.4
20260508065924 47 219 0.0 0.0 0.00 0.03 0.03 83 1012.4
20260508065422 47 233 0.0 0.0 0.00 0.03 0.03 82 1012.3
20260508064920 47 262 0.0 1.0 0.00 0.03 0.03 82 1012.4
20260508064417 47 223 1.0 2.0 0.00 0.03 0.03 83 1012.5
20260508063914 47 255 1.0 2.0 0.00 0.03 0.03 86 1012.3
20260508063412 47 272 0.0 0.0 0.00 0.03 0.03 88 1012.3
20260508062909 47 265 0.0 1.0 0.00 0.03 0.03 88 1012.2
20260508062406 47 227 0.0 1.0 0.00 0.03 0.03 88 1012.5
20260508061903 47 228 0.0 0.0 0.00 0.03 0.03 89 1012.3
20260508061401 47 214 0.0 0.0 0.00 0.03 0.03 89 1012.3
20260508060857 47 200 0.0 1.0 0.00 0.03 0.03 89 1012.5
20260508060356 47 223 0.0 1.0 0.00 0.03 0.03 89 1012.7
20260508055856 47 220 1.0 1.0 0.00 0.03 0.03 89 1012.8
20260508055353 47 197 2.0 2.0 0.00 0.03 0.03 90 1012.9
20260508054849 47 225 2.0 2.0 0.00 0.03 0.03 90 1012.9
20260508054347 47 156 1.0 2.0 0.00 0.03 0.03 90 1012.8
20260508053844 47 203 0.0 1.0 0.00 0.03 0.03 90 1012.9
20260508053341 47 229 1.0 2.0 0.00 0.03 0.03 89 1012.9
20260508052838 47 226 1.0 1.0 0.00 0.03 0.03 89 1013.0
20260508052336 47 230 1.0 1.0 0.00 0.03 0.03 88 1013.1
20260508051832 47 223 0.0 1.0 0.00 0.03 0.03 88 1012.9
20260508051327 47 219 1.0 2.0 0.00 0.03 0.03 88 1012.9
20260508050824 47 216 1.0 1.0 0.00 0.03 0.03 87 1013.1
20260508050321 47 215 2.0 2.0 0.00 0.03 0.03 87 1013.0
20260508045817 47 222 1.0 2.0 0.00 0.03 0.03 87 1013.2
20260508045315 47 262 1.0 3.0 0.05 0.03 0.03 87 1013.5
20260508044812 47 238 1.0 2.0 0.05 0.03 0.03 87 1013.3
20260508044308 48 279 1.0 2.0 0.00 0.02 0.02 85 1013.8
20260508043805 48 304 2.0 6.0 0.00 0.02 0.02 84 1014.1
20260508043302 48 298 3.0 4.0 0.07 0.02 0.02 83 1013.9
20260508042758 49 284 4.0 4.0 0.07 0.02 0.02 81 1014.0
20260508042256 49 294 2.0 4.0 0.05 0.01 0.01 77 1013.9
20260508041753 49 328 2.0 3.0 0.05 0.01 0.01 75 1013.8
20260508041249 49 221 2.0 4.0 0.00 0.00 0.00 73 1013.7
20260508040745 49 219 1.0 2.0 0.00 0.00 0.00 76 1013.3
20260508040243 49 223 0.0 0.0 0.00 0.00 0.00 78 1013.6
20260508035740 49 235 0.0 0.0 0.00 0.00 0.00 77 1012.9
20260508035238 49 142 0.0 0.0 0.00 0.00 0.00 77 1012.8
20260508034734 49 244 1.0 1.0 0.00 0.00 0.00 74 1013.1
20260508034232 50 215 0.0 0.0 0.00 0.00 0.00 73 1012.9
20260508033728 49 223 0.0 0.0 0.00 0.00 0.00 72 1013.2
20260508033227 48 232 0.0 1.0 0.00 0.00 0.00 75 1013.0
20260508032724 48 141 1.0 1.0 0.00 0.00 0.00 79 1013.0
20260508032221 48 173 0.0 0.0 0.00 0.00 0.00 81 1012.7
20260508031718 48 184 0.0 0.0 0.00 0.00 0.00 80 1012.9
20260508031214 48 185 0.0 0.0 0.00 0.00 0.00 79 1012.8
20260508030710 48 172 0.0 0.0 0.00 0.00 0.00 79 1013.1
20260508030208 48 165 0.0 0.0 0.00 0.00 0.00 78 1013.0
20260508025704 48 164 0.0 0.0 0.00 0.00 0.00 78 1013.2
20260508025202 48 160 0.0 0.0 0.00 0.00 0.00 77 1013.1
20260508024657 48 160 0.0 0.0 0.00 0.00 0.00 77 1013.0
20260508024155 48 164 0.0 0.0 0.00 0.00 0.00 76 1013.1
20260508023651 49 165 0.0 0.0 0.00 0.00 0.00 75 1013.1
20260508023149 49 179 0.0 0.0 0.00 0.00 0.00 74 1013.1
20260508022644 49 200 0.0 0.0 0.00 0.00 0.00 73 1013.5
20260508022141 49 221 0.0 0.0 0.00 0.00 0.00 71 1013.1
20260508021637 49 217 0.0 0.0 0.00 0.00 0.00 70 1013.2
20260508021133 49 184 0.0 0.0 0.00 0.00 0.00 69 1013.3
20260508020631 50 183 0.0 0.0 0.00 0.00 0.00 69 1013.1
20260508020129 50 202 0.0 0.0 0.00 0.00 0.00 68 1013.2
20260508015626 50 220 0.0 0.0 0.00 0.00 0.00 66 1013.5
20260508015123 50 230 0.0 0.0 0.00 0.00 0.00 66 1013.2
20260508014619 50 324 0.0 1.0 0.00 0.00 0.00 69 1013.2
20260508014115 50 241 0.0 0.0 0.00 0.00 0.00 67 1013.0
20260508013611 50 241 0.0 0.0 0.00 0.00 0.00 67 1013.0
20260508013109 50 294 0.0 0.0 0.00 0.00 0.00 65 1013.1
20260508012606 51 294 0.0 0.0 0.00 0.00 0.00 64 1013.5
20260508012103 51 305 0.0 0.0 0.00 0.00 0.00 63 1013.0
20260508011601 51 321 0.0 1.0 0.00 0.00 0.00 63 1013.2
20260508011058 51 313 0.0 0.0 0.00 0.00 0.00 64 1013.0
20260508010555 51 294 1.0 2.0 0.00 0.00 0.00 61 1012.9
20260508010053 52 327 0.0 2.0 0.00 0.00 0.00 58 1012.9
20260508005549 52 2 1.0 2.0 0.00 0.00 0.00 56 1013.1
20260508005046 52 288 1.0 1.0 0.00 0.00 0.00 55 1013.2
20260508004542 52 283 2.0 3.0 0.00 0.00 0.00 54 1012.9
20260508004038 53 321 3.0 3.0 0.00 0.00 0.00 54 1013.0
20260508003535 53 274 2.0 3.0 0.00 0.00 0.00 53 1013.0
20260508003033 53 258 1.0 3.0 0.00 0.00 0.00 52 1013.1
20260508002529 53 289 2.0 3.0 0.00 0.00 0.00 52 1013.2
20260508002026 53 302 2.0 3.0 0.00 0.00 0.00 52 1013.1
20260508001522 53 298 3.0 4.0 0.00 0.00 0.00 50 1012.9
20260508001018 54 256 1.0 6.0 0.00 0.00 0.00 49 1013.0
20260508000514 54 269 1.0 3.0 0.00 0.00 0.00 49 1013.1
20260508000012 54 327 1.0 3.0 0.00 0.00 0.00 49 1013.0
20260507235508 54 291 1.0 2.0 0.00 0.00 0.00 49 1013.1
20260507235006 54 323 1.0 3.0 0.00 0.00 0.00 48 1012.9
20260507234502 54 346 2.0 4.0 0.00 0.00 0.00 48 1012.7
20260507233958 54 335 3.0 7.0 0.00 0.00 0.00 47 1012.6
20260507233455 54 275 3.0 4.0 0.00 0.00 0.00 46 1012.7
20260507232954 55 331 4.0 7.0 0.00 0.00 0.00 47 1012.7
20260507232450 55 333 4.0 6.0 0.00 0.00 0.00 45 1012.8
20260507231947 56 277 3.0 8.0 0.00 0.00 0.00 43 1012.7
20260507231443 56 305 4.0 6.0 0.00 0.00 0.00 42 1012.6
20260507230940 56 240 2.0 6.0 0.00 0.00 0.00 40 1012.5
20260507230433 56 0 5.0 7.0 0.00 0.00 0.00 39 1012.5
20260507225933 56 277 1.0 3.0 0.00 0.00 0.00 42 1012.5
20260507225428 57 288 1.0 2.0 0.00 0.00 0.00 40 1012.6
20260507224925 57 267 1.0 2.0 0.00 0.00 0.00 42 1012.4
20260507224421 57 252 3.0 4.0 0.00 0.00 0.00 39 1012.4
20260507223918 57 316 2.0 3.0 0.00 0.00 0.00 41 1012.3
20260507223414 57 354 2.0 2.0 0.00 0.00 0.00 41 1012.3
20260507222911 57 323 0.0 2.0 0.00 0.00 0.00 40 1012.4
20260507222408 57 267 2.0 2.0 0.00 0.00 0.00 41 1012.4
20260507221904 57 257 3.0 4.0 0.00 0.00 0.00 39 1012.4
20260507221401 58 321 2.0 4.0 0.00 0.00 0.00 40 1012.6
20260507220857 59 318 2.0 6.0 0.00 0.00 0.00 39 1012.6
20260507220355 58 299 2.0 2.0 0.00 0.00 0.00 40 1012.6
20260507215851 58 228 3.0 4.0 0.00 0.00 0.00 37 1012.6
20260507215348 58 203 2.0 3.0 0.00 0.00 0.00 39 1012.3
20260507214846 57 319 1.0 4.0 0.00 0.00 0.00 39 1012.4
20260507214343 58 292 3.0 7.0 0.00 0.00 0.00 37 1012.1
20260507213838 58 113 1.0 2.0 0.00 0.00 0.00 40 1012.4
20260507213335 57 348 3.0 7.0 0.00 0.00 0.00 39 1012.1
20260507212831 56 311 2.0 3.0 0.00 0.00 0.00 41 1012.7
20260507212327 56 316 1.0 4.0 0.00 0.00 0.00 40 1012.4
20260507211824 57 322 2.0 4.0 0.00 0.00 0.00 39 1012.5
20260507211321 57 358 3.0 4.0 0.00 0.00 0.00 41 1012.5
20260507210818 57 301 3.0 3.0 0.00 0.00 0.00 39 1012.5
20260507210316 57 313 2.0 4.0 0.00 0.00 0.00 40 1012.4
20260507205811 57 327 1.0 4.0 0.00 0.00 0.00 41 1012.4
20260507205308 57 331 2.0 7.0 0.00 0.00 0.00 40 1012.5
20260507204804 57 316 2.0 4.0 0.00 0.00 0.00 42 1012.5
20260507204302 56 351 4.0 7.0 0.00 0.00 0.00 41 1012.5
20260507203800 57 28 4.0 6.0 0.00 0.00 0.00 40 1012.5
20260507203257 58 329 3.0 7.0 0.00 0.00 0.00 39 1012.6
20260507202753 57 329 3.0 8.0 0.00 0.00 0.00 40 1012.4
20260507202249 56 312 5.0 8.0 0.00 0.00 0.00 42 1012.6
20260507201744 56 328 2.0 4.0 0.00 0.00 0.00 41 1012.7
20260507201242 56 305 5.0 7.0 0.00 0.00 0.00 41 1012.5
20260507200738 56 294 4.0 6.0 0.00 0.00 0.00 39 1012.8
20260507200234 57 18 2.0 6.0 0.00 0.00 0.00 41 1012.8
20260507195730 58 322 3.0 7.0 0.00 0.00 0.00 40 1012.8
20260507195228 57 315 3.0 3.0 0.00 0.00 0.00 42 1012.7
20260507194725 57 306 4.0 6.0 0.00 0.00 0.00 41 1013.0
20260507194221 57 330 4.0 6.0 0.00 0.00 0.00 41 1012.8
20260507193717 56 356 4.0 8.0 0.00 0.00 0.00 42 1013.0
20260507193214 55 34 4.0 7.0 0.00 0.00 0.00 41 1012.8
20260507192710 57 297 4.0 7.0 0.00 0.00 0.00 41 1012.9
20260507192208 57 8 6.0 8.0 0.00 0.00 0.00 42 1012.8
20260507191703 57 17 5.0 9.0 0.00 0.00 0.00 40 1012.8
20260507191200 57 234 2.0 7.0 0.00 0.00 0.00 40 1012.9
20260507190651 57 340 4.0 8.0 0.00 0.00 0.00 43 1013.0
20260507190150 56 350 7.0 10.0 0.00 0.00 0.00 39 1013.1
20260507185647 57 335 7.0 9.0 0.00 0.00 0.00 39 1012.9
20260507185144 57 327 4.0 11.0 0.00 0.00 0.00 40 1013.1
20260507184642 56 341 4.0 8.0 0.00 0.00 0.00 40 1012.8
20260507184140 56 5 4.0 6.0 0.00 0.00 0.00 42 1013.2